When you browse on this site, cookies collect data to enhance your experience and personalize the content and advertising you see.
Visit our Privacy Policy to learn more. By continuing to use the site, you agree to this use of cookies and data.
  • en Suisse
  • Liste des pays
  • À 7 jours
  • Température de l'eau
  • Carte météo
  • Widgets météo
  • user-avatar
    Se connecter

    Météo par heure à Staroe Shishlovo

    Ce jour, 19 Août, Lundi

    Heure Température Précipitation Vent Pression Humidité
    00:00 +14°C° 0 mm 2 m/s 742 mmHg 96%
    01:00 +14°C° 0 mm 2 m/s 742 mmHg 96%
    02:00 +14°C° 0 mm 2 m/s 743 mmHg 96%
    03:00 +13°C° 0 mm 2 m/s 743 mmHg 95%
    04:00 +13°C° 0 mm 1 m/s 743 mmHg 95%
    05:00 +13°C° 0 mm 1 m/s 744 mmHg 95%
    06:00 +14°C° 0 mm 1 m/s 744 mmHg 91%
    07:00 +16°C° 0 mm 1 m/s 744 mmHg 87%
    08:00 +19°C° 0 mm 1 m/s 744 mmHg 83%
    09:00 +19°C° 0 mm 2 m/s 745 mmHg 77%
    10:00 +21°C° 0 mm 2 m/s 745 mmHg 72%
    11:00 +24°C° 0 mm 3 m/s 745 mmHg 66%
    12:00 +24°C° 0 mm 3 m/s 745 mmHg 66%
    13:00 +25°C° 0 mm 3 m/s 745 mmHg 65%
    14:00 +26°C° 0 mm 3 m/s 745 mmHg 65%
    15:00 +25°C° 0 mm 3 m/s 745 mmHg 68%
    16:00 +25°C° 0 mm 3 m/s 746 mmHg 72%
    17:00 +25°C° 0 mm 3 m/s 746 mmHg 76%
    18:00 +22°C° 0 mm 3 m/s 746 mmHg 80%
    19:00 +21°C° 0 mm 3 m/s 746 mmHg 84%
    20:00 +19°C° 0 mm 3 m/s 746 mmHg 88%
    21:00 +19°C° 0 mm 3 m/s 746 mmHg 89%
    22:00 +18°C° 0 mm 3 m/s 746 mmHg 90%
    23:00 +18°C° 0 mm 3 m/s 746 mmHg 90%

    Demain, 20 Août, Mardi

    Heure Température Précipitation Vent Pression Humidité
    00:00 +18°C° 0 mm 3 m/s 746 mmHg 90%
    01:00 +17°C° 0 mm 3 m/s 746 mmHg 90%
    02:00 +17°C° 0 mm 3 m/s 747 mmHg 89%
    03:00 +17°C° 0.4 mm 3 m/s 747 mmHg 91%
    04:00 +17°C° 0.4 mm 2 m/s 747 mmHg 93%
    05:00 +16°C° 0.4 mm 2 m/s 747 mmHg 94%
    06:00 +18°C° 0.2 mm 2 m/s 747 mmHg 93%
    07:00 +19°C° 0.2 mm 2 m/s 748 mmHg 92%
    08:00 +20°C° 0.2 mm 2 m/s 748 mmHg 90%
    09:00 +21°C° 0.1 mm 2 m/s 748 mmHg 86%
    10:00 +24°C° 0.1 mm 2 m/s 748 mmHg 81%
    11:00 +25°C° 0.1 mm 2 m/s 748 mmHg 77%
    12:00 +26°C° 1 mm 2 m/s 748 mmHg 77%
    13:00 +26°C° 1 mm 3 m/s 748 mmHg 77%
    14:00 +26°C° 1 mm 3 m/s 748 mmHg 77%
    15:00 +26°C° 0.6 mm 2 m/s 748 mmHg 79%
    16:00 +26°C° 0.6 mm 2 m/s 748 mmHg 82%
    17:00 +26°C° 0.6 mm 2 m/s 748 mmHg 84%
    18:00 +24°C° 0.4 mm 1 m/s 748 mmHg 87%
    19:00 +23°C° 0.4 mm 1 m/s 749 mmHg 89%
    20:00 +21°C° 0.4 mm 1 m/s 749 mmHg 92%
    21:00 +21°C° 0.1 mm 1 m/s 749 mmHg 93%
    22:00 +20°C° 0.1 mm 1 m/s 749 mmHg 94%
    23:00 +20°C° 0.1 mm 1 m/s 749 mmHg 95%

    Après-demain, 21 Août, Mercredi

    Heure Température Précipitation Vent Pression Humidité
    00:00 +20°C° 0 mm 1 m/s 749 mmHg 95%
    01:00 +19°C° 0 mm 1 m/s 749 mmHg 95%
    02:00 +19°C° 0 mm 1 m/s 749 mmHg 95%
    03:00 +19°C° 0 mm 1 m/s 749 mmHg 96%
    04:00 +19°C° 0 mm 1 m/s 749 mmHg 96%
    05:00 +18°C° 0 mm 1 m/s 749 mmHg 96%
    06:00 +20°C° 0 mm 1 m/s 749 mmHg 94%
    07:00 +21°C° 0 mm 1 m/s 749 mmHg 92%
    08:00 +22°C° 0 mm 1 m/s 750 mmHg 90%
    09:00 +23°C° 0.1 mm 2 m/s 749 mmHg 85%
    10:00 +24°C° 0.1 mm 2 m/s 749 mmHg 81%
    11:00 +25°C° 0.1 mm 3 m/s 749 mmHg 77%
    12:00 +26°C° 0.3 mm 3 m/s 749 mmHg 74%
    13:00 +27°C° 0.3 mm 3 m/s 749 mmHg 72%
    14:00 +27°C° 0.3 mm 3 m/s 748 mmHg 70%
    15:00 +27°C° 0 mm 3 m/s 748 mmHg 72%
    16:00 +27°C° 0 mm 3 m/s 747 mmHg 74%
    17:00 +27°C° 0 mm 2 m/s 747 mmHg 76%
    18:00 +25°C° 0 mm 3 m/s 747 mmHg 79%
    19:00 +22°C° 0 mm 3 m/s 747 mmHg 83%
    20:00 +21°C° 0 mm 3 m/s 747 mmHg 87%
    21:00 +20°C° 0 mm 3 m/s 747 mmHg 87%
    22:00 +20°C° 0 mm 3 m/s 747 mmHg 87%
    23:00 +19°C° 0 mm 3 m/s 747 mmHg 87%

    22 Août, Jeudi

    Heure Température Précipitation Vent Pression Humidité
    00:00 +19°C° 0.1 mm 2 m/s 747 mmHg 89%
    01:00 +18°C° 0.1 mm 2 m/s 747 mmHg 90%
    02:00 +18°C° 0.1 mm 2 m/s 747 mmHg 92%
    03:00 +18°C° 0.4 mm 2 m/s 747 mmHg 93%
    04:00 +18°C° 0.4 mm 2 m/s 747 mmHg 95%
    05:00 +17°C° 0.4 mm 2 m/s 747 mmHg 97%
    06:00 +17°C° 0.1 mm 3 m/s 748 mmHg 96%
    07:00 +17°C° 0.1 mm 3 m/s 748 mmHg 95%
    08:00 +17°C° 0.1 mm 4 m/s 748 mmHg 94%
    09:00 +17°C° 0 mm 4 m/s 748 mmHg 91%
    10:00 +18°C° 0 mm 3 m/s 749 mmHg 88%
    11:00 +19°C° 0 mm 3 m/s 749 mmHg 85%
    12:00 +19°C° 0 mm 3 m/s 749 mmHg 83%
    13:00 +20°C° 0 mm 3 m/s 749 mmHg 81%
    14:00 +20°C° 0 mm 3 m/s 749 mmHg 79%
    15:00 +20°C° 0 mm 3 m/s 749 mmHg 79%
    16:00 +20°C° 0 mm 3 m/s 749 mmHg 80%
    17:00 +19°C° 0 mm 3 m/s 749 mmHg 81%
    18:00 +18°C° 0 mm 2 m/s 749 mmHg 84%
    19:00 +17°C° 0 mm 2 m/s 749 mmHg 87%
    20:00 +16°C° 0 mm 2 m/s 749 mmHg 90%
    21:00 +16°C° 0 mm 2 m/s 749 mmHg 91%
    22:00 +15°C° 0 mm 2 m/s 749 mmHg 92%
    23:00 +15°C° 0 mm 2 m/s 749 mmHg 94%

    23 Août, Vendredi

    Heure Température Précipitation Vent Pression Humidité
    00:00 +15°C° 0 mm 2 m/s 749 mmHg 93%
    01:00 +14°C° 0 mm 2 m/s 749 mmHg 93%
    02:00 +14°C° 0 mm 2 m/s 749 mmHg 93%
    03:00 +14°C° 0 mm 2 m/s 749 mmHg 93%
    04:00 +14°C° 0 mm 2 m/s 749 mmHg 93%
    05:00 +14°C° 0 mm 2 m/s 749 mmHg 94%
    06:00 +15°C° 0 mm 2 m/s 749 mmHg 89%
    07:00 +16°C° 0 mm 2 m/s 750 mmHg 85%
    08:00 +18°C° 0 mm 2 m/s 750 mmHg 81%
    09:00 +19°C° 0 mm 2 m/s 750 mmHg 75%
    10:00 +20°C° 0 mm 2 m/s 750 mmHg 69%
    11:00 +21°C° 0 mm 2 m/s 750 mmHg 64%
    12:00 +21°C° 0.1 mm 3 m/s 750 mmHg 63%
    13:00 +22°C° 0.1 mm 3 m/s 750 mmHg 62%
    14:00 +22°C° 0.1 mm 3 m/s 750 mmHg 61%
    15:00 +21°C° 0.3 mm 3 m/s 750 mmHg 67%
    16:00 +20°C° 0.3 mm 3 m/s 750 mmHg 72%
    17:00 +19°C° 0.3 mm 2 m/s 750 mmHg 78%
    18:00 +18°C° 0 mm 3 m/s 750 mmHg 80%
    19:00 +16°C° 0 mm 3 m/s 750 mmHg 82%
    20:00 +13°C° 0 mm 3 m/s 750 mmHg 85%
    21:00 +13°C° 0 mm 3 m/s 750 mmHg 87%
    22:00 +12°C° 0 mm 3 m/s 751 mmHg 89%
    23:00 +12°C° 0 mm 3 m/s 751 mmHg 92%

    24 Août, Samedi

    Heure Température Précipitation Vent Pression Humidité
    00:00 +11°C° 0 mm 3 m/s 751 mmHg 93%
    01:00 +11°C° 0 mm 3 m/s 751 mmHg 94%
    02:00 +10°C° 0 mm 3 m/s 751 mmHg 95%
    03:00 +10°C° 0 mm 2 m/s 751 mmHg 95%
    04:00 +10°C° 0 mm 2 m/s 751 mmHg 96%
    05:00 +9°C° 0 mm 2 m/s 752 mmHg 96%
    06:00 +12°C° 0 mm 2 m/s 752 mmHg 91%
    07:00 +14°C° 0 mm 2 m/s 752 mmHg 86%
    08:00 +15°C° 0 mm 2 m/s 752 mmHg 81%
    09:00 +17°C° 0 mm 2 m/s 752 mmHg 73%
    10:00 +18°C° 0 mm 2 m/s 753 mmHg 65%
    11:00 +20°C° 0 mm 2 m/s 753 mmHg 58%
    12:00 +20°C° 0 mm 2 m/s 753 mmHg 56%
    13:00 +21°C° 0 mm 2 m/s 752 mmHg 54%
    14:00 +23°C° 0 mm 2 m/s 752 mmHg 52%
    15:00 +21°C° 0 mm 2 m/s 752 mmHg 57%
    16:00 +22°C° 0 mm 1 m/s 752 mmHg 62%
    17:00 +22°C° 0 mm 1 m/s 752 mmHg 67%
    18:00 +20°C° 0 mm 1 m/s 752 mmHg 72%
    19:00 +18°C° 0 mm 1 m/s 752 mmHg 76%
    20:00 +15°C° 0 mm 1 m/s 752 mmHg 80%
    21:00 +14°C° 0 mm 1 m/s 752 mmHg 82%
    22:00 +14°C° 0 mm 1 m/s 752 mmHg 84%
    23:00 +13°C° 0 mm 1 m/s 753 mmHg 87%
    Voir plus